Weather observations for the past three days for
Cleburne, Cleburne Municipal Airport
Imperial (Metric)
Date Time (cdt) Wind (mph) Vis. (mi.) Weather Sky Cond. Temperature (ºF) Relative Humidity Wind Chill (°F) Heat Index (°F) Pressure Precipitation (in)
Air Dwpt 6 hour altimeter (in) sea level (mb) 1 hr 3 hr 6 hr
Max. Min.
24 01:15 S 5 10.00 Fair CLR 78.8 71.6 79% 82 29.96 0.0
24 00:55 S 5 10.00 Fair CLR 80.6 71.6 74% 85 29.96 0.0
24 00:35 S 6 10.00 Fair CLR 80.6 71.6 74% 85 29.97 0.0
24 00:15 S 6 10.00 NULL NULL 80.6 73.4 79% 85 29.97 0.0
23 23:55 S 8 10.00 NULL NULL 82.4 73.4 74% 88 29.96 0.0
23 23:35 S 8 10.00 NULL NULL 80.6 73.4 79% 85 29.96 0.0
23 23:15 S 7 10.00 NULL NULL 82.4 73.4 74% 88 29.96 0.0
23 22:55 S 7 10.00 Fair CLR 82.4 71.6 70% 87 29.96 0.0
23 22:35 S 7 10.00 Fair CLR 84.2 71.6 66% 90 29.95 0.0
23 22:15 S 7 10.00 Fair CLR 86 71.6 62% 92 29.95 0.0
23 21:55 S 7 10.00 Fair CLR 84.2 71.6 66% 90 29.94 0.0
23 21:35 S 6 10.00 NULL NULL 86 71.6 62% 92 29.93 0.0
23 21:15 S 7 10.00 NULL NULL 86 71.6 62% 92 29.92 0.0
23 20:55 S 6 10.00 Fair CLR 87.8 71.6 59% 94 29.92 0.0
23 20:35 S 5 10.00 Fair CLR 87.8 69.8 55% 93 29.92 0.0
23 19:35 SE 7 10.00 Fair CLR 91.4 66.2 44% 94 29.92 0.0
23 18:55 S 8 9.00 Fair CLR 93.2 64.4 39% 95 29.92 0.0
23 18:35 SE 6 10.00 Fair CLR 95 64.4 36% 97 29.91 0.0
23 18:15 SE 9 10.00 Fair CLR 95 64.4 36% 97 29.91 0.0
23 17:55 SE 6 10.00 Fair CLR 95 66.2 39% 98 29.92 0.0
23 17:35 Vrbl 5 G 14 10.00 A Few Clouds FEW060 95 66.2 39% 98 29.92 0.0
23 17:15 SE 9 10.00 A Few Clouds FEW060 95 68 41% 100 29.93 0.0
23 16:35 Vrbl 7 G 14 10.00 A Few Clouds FEW060 95 68 41% 100 29.94 0.0
23 16:15 Vrbl 6 G 13 10.00 Fair CLR 95 68 41% 100 29.95 0.0
23 15:55 Vrbl 7 10.00 Fair CLR 95 68 41% 100 29.95 0.0
23 15:35 S 7 10.00 Fair CLR 95 66.2 39% 98 29.96 0.0
23 14:55 Vrbl 5 G 13 9.00 Partly Cloudy SCT055 95 68 41% 100 29.97 0.0
23 14:35 Vrbl 3 10.00 Fair CLR 95 68 41% 100 29.98 0.0
23 14:15 Calm 10.00 Fair CLR 93.2 68 44% 98 29.98 0.0
23 13:55 Vrbl 7 10.00 Fair CLR 93.2 68 44% 98 29.99 0.0
23 13:35 Vrbl 6 G 12 10.00 Fair CLR 93.2 68 44% 98 30 0.0
23 13:15 SW 6 G 12 10.00 Fair CLR 93.2 66.2 41% 96 30 0.0
23 12:55 Vrbl 5 G 14 10.00 Fair CLR 91.4 66.2 44% 94 30.01 0.0
23 12:35 S 8 G 14 10.00 Fair CLR 91.4 68 46% 96 30.01 0.0
23 12:15 SW 5 10.00 Fair CLR 89.6 68 49% 93 30.02 0.0
23 11:55 W 9 10.00 Fair CLR 89.6 69.8 52% 95 30.02 0.0
23 11:35 SW 12 10.00 Fair CLR 89.6 68 49% 93 30.02 0.0
23 11:15 SW 8 10.00 Fair CLR 89.6 69.8 52% 95 30.03 0.0
23 10:55 W 6 G 13 10.00 Fair CLR 87.8 71.6 59% 94 30.03 0.0
23 10:35 W 8 10.00 Fair CLR 87.8 73.4 62% 96 30.03 0.0
23 10:15 SW 7 G 14 10.00 Fair CLR 86 73.4 66% 93 30.03 0.0
23 09:55 SW 7 10.00 Fair CLR 86 71.6 62% 92 30.03 0.0
23 09:35 SW 10 10.00 Fair CLR 84.2 71.6 66% 90 30.03 0.0
23 09:15 SW 8 10.00 Fair CLR 84.2 73.4 70% 91 30.03 0.0
23 08:55 SW 8 10.00 Fair CLR 82.4 73.4 74% 88 30.03 0.0
23 08:35 SW 9 10.00 Fair CLR 80.6 73.4 79% 85 30.03 0.0
23 08:15 SW 5 10.00 Fair CLR 78.8 73.4 84% 82 30.03 0.0
23 07:55 SW 6 10.00 Fair CLR 77 73.4 89% 78 30.02 0.0
23 07:35 SW 5 10.00 Fair CLR 77 73.4 89% 78 30.02 0.0
23 07:15 S 6 10.00 Fair CLR 75.2 73.4 94% 74 30.01 0.0
23 06:55 S 6 10.00 Fair CLR 75.2 73.4 94% 74 30.01 0.0
23 06:35 S 5 10.00 NULL NULL 75.2 73.4 94% 74 30 0.0
23 06:15 S 5 10.00 NULL NULL 75.2 73.4 94% 74 29.99 0.0
23 05:55 S 7 10.00 NULL NULL 75.2 73.4 94% 74 29.99 0.0
23 05:35 S 6 10.00 NULL NULL 73.4 71.6 94% 29.99 0.0
23 05:15 S 5 10.00 NULL NULL 75.2 71.6 89% 75 29.98 0.0
23 04:55 S 3 10.00 NULL NULL 75.2 71.6 89% 75 29.98 0.0
23 04:35 S 5 10.00 NULL NULL 75.2 71.6 89% 75 29.98 0.0
23 04:15 S 6 10.00 NULL NULL 75.2 71.6 89% 75 29.98 0.0
23 03:55 S 7 10.00 NULL NULL 75.2 71.6 89% 75 29.98 0.0
23 03:35 SW 5 10.00 Fair CLR 77 71.6 83% 78 29.98 0.0
23 03:15 S 6 10.00 Fair CLR 77 73.4 89% 78 29.98 0.0
23 02:55 S 5 10.00 Fair CLR 77 73.4 89% 78 29.99 0.0
23 02:35 S 5 10.00 Fair CLR 77 73.4 89% 78 29.99 0.0
23 02:15 S 7 10.00 Fair CLR 77 73.4 89% 78 30 0.0
23 01:55 S 7 10.00 Fair CLR 78.8 73.4 84% 82 30 0.0
23 01:35 S 7 10.00 Fair CLR 78.8 73.4 84% 82 30 0.0
23 01:15 S 7 G 15 10.00 Fair CLR 78.8 71.6 79% 82 30.01 0.0
23 00:55 S 6 10.00 Fair CLR 78.8 71.6 79% 82 30.01 0.0
23 00:35 S 8 10.00 Fair CLR 78.8 71.6 79% 82 30.01 0.0
23 00:15 S 7 G 13 10.00 Fair CLR 78.8 71.6 79% 82 30.01 0.0
22 23:55 S 7 10.00 Fair CLR 80.6 71.6 74% 85 30.02 0.0
22 23:35 S 6 10.00 Fair CLR 80.6 71.6 74% 85 30.02 0.0
22 23:15 S 7 10.00 NULL NULL 80.6 71.6 74% 85 30.01 0.0
22 22:55 S 7 10.00 NULL NULL 80.6 71.6 74% 85 30.02 0.0
22 22:35 S 7 10.00 NULL NULL 82.4 71.6 70% 87 30.01 0.0
22 22:15 SE 7 10.00 NULL NULL 82.4 71.6 70% 87 30 0.0
22 21:55 S 7 10.00 Fair CLR 82.4 71.6 70% 87 30 0.0
22 21:35 SE 7 10.00 Fair CLR 84.2 69.8 62% 88 29.99 0.0
22 21:15 SE 7 10.00 NULL NULL 84.2 69.8 62% 88 29.98 0.0
22 20:55 SE 8 10.00 Fair CLR 86 69.8 59% 91 29.98 0.0
22 20:35 SE 8 10.00 Fair CLR 86 69.8 59% 91 29.98 0.0
22 20:15 SE 10 10.00 Fair CLR 87.8 68 52% 91 29.98 0.0
22 19:55 S 8 10.00 Fair CLR 89.6 68 49% 93 29.98 0.0
22 19:35 S 9 G 15 10.00 Fair CLR 89.6 68 49% 93 29.97 0.0
22 19:15 S 8 10.00 Fair CLR 91.4 68 46% 96 29.97 0.0
22 18:55 Vrbl 6 10.00 Fair CLR 91.4 68 46% 96 29.98 0.0
22 18:35 SW 8 G 15 10.00 Fair CLR 91.4 66.2 44% 94 29.98 0.0
22 18:15 SW 8 10.00 Fair CLR 93.2 66.2 41% 96 29.98 0.0
22 17:55 Vrbl 7 G 14 10.00 Fair CLR 93.2 66.2 41% 96 29.98 0.0
22 17:35 S 9 10.00 Fair CLR 93.2 64.4 39% 95 29.99 0.0
22 17:15 Vrbl 7 G 14 10.00 Fair CLR 93.2 64.4 39% 95 29.99 0.0
22 16:55 S 12 10.00 Fair CLR 93.2 66.2 41% 96 30 0.0
22 16:35 S 10 10.00 Fair CLR 93.2 66.2 41% 96 30 0.0
22 16:15 S 9 G 16 10.00 Fair CLR 93.2 66.2 41% 96 30.01 0.0
22 15:55 S 8 10.00 Fair CLR 93.2 68 44% 98 30.01 0.0
22 15:35 S 9 10.00 Fair CLR 93.2 66.2 41% 96 30.02 0.0
22 15:15 SW 9 10.00 Fair CLR 91.4 68 46% 96 30.03 0.0
22 14:55 S 10 10.00 Fair CLR 91.4 68 46% 96 30.03 0.0
22 14:35 SE 7 G 14 10.00 Fair CLR 91.4 68 46% 96 30.04 0.0
22 14:15 S 10 10.00 Fair CLR 91.4 68 46% 96 30.04 0.0
22 13:55 S 9 G 15 10.00 Fair CLR 91.4 68 46% 96 30.05 0.0
22 13:35 S 10 10.00 Fair CLR 89.6 68 49% 93 30.06 0.0
22 13:15 S 7 10.00 Fair CLR 89.6 69.8 52% 95 30.07 0.0
22 12:55 S 9 10.00 A Few Clouds FEW042 87.8 69.8 55% 93 30.07 0.0
22 12:35 S 6 G 15 10.00 Partly Cloudy SCT040 89.6 71.6 55% 96 30.08 0.0
22 12:15 S 9 G 16 10.00 A Few Clouds FEW040 89.6 71.6 55% 96 30.08 0.0
22 11:55 S 10 10.00 A Few Clouds FEW038 87.8 71.6 59% 94 30.09 0.0
22 11:35 Vrbl 7 G 14 10.00 Fair CLR 87.8 71.6 59% 94 30.1 0.0
22 11:15 S 8 G 15 10.00 Fair CLR 86 71.6 62% 92 30.1 0.0
22 10:55 S 9 10.00 Fair CLR 86 73.4 66% 93 30.1 0.0
22 10:35 S 7 10.00 Partly Cloudy SCT027 84.2 73.4 70% 91 30.1 0.0
22 10:15 SW 6 10.00 Mostly Cloudy BKN022 BKN028 82.4 73.4 74% 88 30.1 0.0
22 09:55 SW 3 G 12 10.00 Mostly Cloudy BKN021 BKN026 84.2 75.2 74% 92 30.11 0.0
22 09:35 SW 9 10.00 Partly Cloudy SCT019 SCT025 84.2 75.2 74% 92 30.11 0.0
22 09:15 SW 8 10.00 Partly Cloudy SCT018 82.4 77 84% 91 30.11 0.0
22 08:55 S 9 10.00 Fair CLR 80.6 75.2 84% 86 30.11 0.0
22 08:35 SW 8 10.00 Fair CLR 78.8 75.2 89% 82 30.11 0.0
22 08:15 S 6 10.00 Fair CLR 78.8 75.2 89% 82 30.1 0.0
22 07:55 S 5 10.00 Fair CLR 77 75.2 94% 78 30.1 0.0
22 07:35 S 5 10.00 Fair CLR 75.2 75.2 100% 73 30.1 0.0
22 07:15 S 5 10.00 Fair CLR 75.2 75.2 100% 73 30.1 0.0
22 06:55 S 6 10.00 Fair CLR 73.4 73.4 100% 30.1 0.0
22 06:35 S 7 10.00 NULL NULL 73.4 73.4 100% 30.09 0.0
22 06:15 S 7 10.00 NULL NULL 73.4 73.4 100% 30.09 0.0
22 05:55 S 7 10.00 NULL NULL 75.2 73.4 94% 74 30.09 0.0
22 05:35 S 7 10.00 NULL NULL 75.2 73.4 94% 74 30.09 0.0
22 05:15 S 7 10.00 NULL NULL 75.2 73.4 94% 74 30.09 0.0
22 04:55 S 8 10.00 NULL NULL 75.2 73.4 94% 74 30.09 0.0
22 04:35 S 8 10.00 NULL NULL 75.2 73.4 94% 74 30.08 0.0
22 04:15 S 7 10.00 NULL NULL 75.2 73.4 94% 74 30.09 0.0
22 03:55 S 6 10.00 NULL NULL 75.2 73.4 94% 74 30.09 0.0
22 03:35 S 6 10.00 NULL NULL 75.2 73.4 94% 74 30.09 0.0
22 03:15 S 7 10.00 NULL NULL 75.2 71.6 89% 75 30.09 0.0
22 02:55 S 6 10.00 NULL NULL 75.2 71.6 89% 75 30.09 0.0
22 02:35 S 6 10.00 NULL NULL 77 71.6 83% 78 30.1 0.0
22 02:15 S 6 10.00 NULL NULL 77 71.6 83% 78 30.1 0.0
22 01:55 S 6 10.00 NULL NULL 77 71.6 83% 78 30.1 0.0
22 01:35 SE 6 10.00 NULL NULL 77 71.6 83% 78 30.1 0.0
22 01:15 SE 6 10.00 Fair CLR 77 69.8 79% 79 30.1 0.0
22 00:55 S 6 10.00 Fair CLR 77 69.8 79% 79 30.11 0.0
22 00:35 SE 5 10.00 Fair CLR 78.8 69.8 74% 81 30.11 0.0
22 00:15 S 5 10.00 Fair CLR 78.8 69.8 74% 81 30.11 0.0
21 23:55 SE 5 10.00 Fair CLR 78.8 69.8 74% 81 30.11 0.0
21 23:35 SE 7 10.00 Fair CLR 80.6 69.8 70% 84 30.11 0.0
21 23:15 SE 8 10.00 Fair CLR 80.6 69.8 70% 84 30.1 0.0
21 22:55 SE 7 10.00 Fair CLR 80.6 69.8 70% 84 30.1 0.0
21 22:35 SE 8 10.00 NULL NULL 80.6 69.8 70% 84 30.09 0.0
21 22:15 SE 8 10.00 NULL NULL 82.4 69.8 66% 86 30.08 0.0
21 21:55 SE 8 10.00 NULL NULL 82.4 69.8 66% 86 30.08 0.0
21 21:35 SE 9 10.00 NULL NULL 82.4 69.8 66% 86 30.07 0.0
21 21:15 SE 7 10.00 Fair CLR 82.4 69.8 66% 86 30.07 0.0
21 20:55 SE 7 10.00 Fair CLR 84.2 69.8 62% 88 30.07 0.0
21 20:35 SE 8 10.00 Fair CLR 86 69.8 59% 91 30.07 0.0
21 20:15 SE 8 10.00 Fair CLR 86 68 55% 89 30.07 0.0
21 19:55 SE 8 10.00 Fair CLR 87.8 68 52% 91 30.07 0.0
21 19:35 E 10 10.00 Fair CLR 89.6 68 49% 93 30.07 0.0
21 19:15 SE 8 10.00 Fair CLR 89.6 68 49% 93 30.07 0.0
21 18:55 SE 9 G 17 10.00 A Few Clouds FEW050 89.6 68 49% 93 30.07 0.0
21 18:35 SE 8 G 17 10.00 A Few Clouds FEW050 91.4 68 46% 96 30.08 0.0
21 18:15 E 13 10.00 A Few Clouds FEW050 FEW055 91.4 68 46% 96 30.08 0.0
21 17:55 E 8 G 15 10.00 A Few Clouds FEW050 FEW060 91.4 68 46% 96 30.08 0.0
21 17:35 E 12 10.00 Partly Cloudy FEW055 SCT070 SCT080 91.4 68 46% 96 30.08 0.0
21 17:15 SE 9 10.00 Partly Cloudy SCT050 SCT070 SCT080 89.6 68 49% 93 30.09 0.0
21 16:55 E 10 G 17 10.00 Partly Cloudy FEW050 SCT080 91.4 68 46% 96 30.1 0.0
21 16:35 SE 8 G 14 10.00 A Few Clouds FEW080 FEW095 89.6 68 49% 93 30.1 0.0
21 16:15 E 9 10.00 Partly Cloudy FEW050 SCT090 89.6 68 49% 93 30.11 0.0
21 15:55 E 7 10.00 Partly Cloudy FEW050 FEW060 SCT080 91.4 69.8 49% 97 30.12 0.0
21 15:35 SE 10 10.00 Mostly Cloudy FEW046 SCT070 BKN080 89.6 69.8 52% 95 30.13 0.0
21 15:15 SE 7 G 14 10.00 Partly Cloudy SCT046 SCT065 SCT075 87.8 69.8 55% 93 30.13 0.0
21 14:55 Calm 10.00 Partly Cloudy FEW046 FEW055 SCT070 89.6 69.8 52% 95 30.13 0.0
21 14:35 Vrbl 6 G 13 10.00 Mostly Cloudy FEW043 SCT060 BKN070 87.8 71.6 59% 94 30.14 0.0
21 14:15 SE 9 10.00 Partly Cloudy FEW043 SCT050 SCT060 89.6 71.6 55% 96 30.14 0.0
21 13:55 SE 9 10.00 Partly Cloudy FEW044 FEW050 SCT060 89.6 71.6 55% 96 30.15 0.0
21 13:35 SE 6 10.00 Partly Cloudy SCT044 SCT050 SCT060 86 71.6 62% 92 30.16 0.0
21 13:15 SE 5 G 15 10.00 Partly Cloudy FEW042 FEW050 SCT065 87.8 71.6 59% 94 30.16 0.0
21 12:55 Vrbl 3 G 14 10.00 A Few Clouds FEW038 FEW048 89.6 71.6 55% 96 30.17 0.0
21 12:35 S 8 10.00 Partly Cloudy SCT039 SCT047 87.8 71.6 59% 94 30.18 0.0
21 12:15 Vrbl 6 G 14 10.00 A Few Clouds FEW038 FEW046 87.8 71.6 59% 94 30.19 0.0
21 11:55 SE 10 10.00 Partly Cloudy SCT037 87.8 71.6 59% 94 30.19 0.0
21 11:35 S 7 10.00 Partly Cloudy SCT035 SCT041 86 71.6 62% 92 30.19 0.0
21 11:15 Vrbl 6 G 13 10.00 Partly Cloudy SCT034 86 71.6 62% 92 30.19 0.0
21 10:55 SE 5 10.00 Mostly Cloudy BKN029 BKN034 86 71.6 62% 92 30.19 0.0
21 10:35 S 7 G 13 10.00 Mostly Cloudy FEW021 BKN027 84.2 73.4 70% 91 30.19 0.0
21 10:15 SE 5 G 12 10.00 Mostly Cloudy BKN021 BKN026 84.2 73.4 70% 91 30.19 0.0
21 09:55 Vrbl 3 10.00 Mostly Cloudy BKN016 BKN021 BKN026 82.4 75.2 79% 89 30.19 0.0
21 09:35 Vrbl 5 10.00 Mostly Cloudy BKN014 BKN020 82.4 77 84% 91 30.2 0.0
21 09:15 SE 6 10.00 Partly Cloudy SCT014 80.6 75.2 84% 86 30.19 0.0
21 08:55 SE 5 10.00 Fair CLR 78.8 75.2 89% 82 30.19 0.0
21 08:35 SE 6 9.00 Fair CLR 78.8 75.2 89% 82 30.19 0.0
21 08:15 SE 6 10.00 Fair CLR 78.8 75.2 89% 82 30.19 0.0
21 07:55 SE 7 10.00 Fair CLR 78.8 75.2 89% 82 30.18 0.0
21 07:35 SE 5 9.00 Fair CLR 77 75.2 94% 78 30.18 0.0
21 07:15 SE 6 10.00 A Few Clouds FEW065 75.2 75.2 100% 73 30.17 0.0
21 06:55 SE 8 10.00 Mostly Cloudy BKN060 75.2 75.2 100% 73 30.17 0.0
21 06:35 SE 7 10.00 NULL NULL 75.2 75.2 100% 73 30.16 0.0
21 06:15 SE 7 10.00 NULL NULL 75.2 73.4 94% 74 30.16 0.0
21 05:55 SE 6 10.00 NULL NULL 75.2 73.4 94% 74 30.16 0.0
21 05:35 SE 5 10.00 NULL NULL 73.4 73.4 100% 30.15 0.0
21 05:15 SE 7 10.00 NULL NULL 75.2 73.4 94% 74 30.15 0.0
21 04:55 SE 6 10.00 NULL NULL 75.2 73.4 94% 74 30.15 0.0
21 04:35 SE 6 10.00 NULL NULL 75.2 73.4 94% 74 30.15 0.0
21 04:15 SE 7 10.00 NULL NULL 75.2 73.4 94% 74 30.15 0.0
21 03:55 SE 7 10.00 NULL NULL 77 73.4 89% 78 30.15 0.0
21 03:35 SE 8 10.00 Fair CLR 77 73.4 89% 78 30.15 0.0
21 03:15 SE 10 10.00 A Few Clouds FEW046 FEW055 FEW065 77 71.6 83% 78 30.15 0.0
21 02:55 SE 9 10.00 NULL NULL 78.8 73.4 84% 82 30.15 0.0
21 02:35 SE 7 10.00 NULL NULL 78.8 73.4 84% 82 30.15 0.0
21 02:15 E 7 10.00 NULL NULL 77 71.6 83% 78 30.15 0.0
21 01:55 E 7 10.00 NULL NULL 77 71.6 83% 78 30.16 0.0
21 01:35 E 6 10.00 NULL NULL 77 71.6 83% 78 30.16 0.0
Date Time (cdt) Wind (mph) Vis. (mi.) Weather Sky Cond. Air Dwpt Max. Min. Relative Humidity Wind Chill (°F) Heat Index (°F) altimeter (in) sea level (mb) 1 hr 3 hr 6 hr
6 hour
Temperature (ºF) Pressure Precipitation (in)